Air Resources Laboratory banner image
Air Resources Laboratory web site National Oceanic and Atmospheric Administration (NOAA)

nv roundup


Office: REV

ASUS45 KREV 212310
RWRNV
NEVADA REGIONAL WEATHER ROUNDUP
NATIONAL WEATHER SERVICE RENO NV
400 PM PDT SUN OCT 21 2018

NOTE: "FAIR" INDICATES FEW OR NO CLOUDS BELOW 12,000 FEET WITH NO
SIGNIFICANT WEATHER AND/OR OBSTRUCTIONS TO VISIBILITY.

NVZ001-003-004-220000-
WESTERN NEVADA

CITY           SKY/WX    TMP DP  RH WIND       PRES   REMARKS
RENO           MOSUNNY   72  18  13 E5        30.02F
CARSON CITY    FAIR      70  16  12 CALM      30.02F
MINDEN         FAIR      70  18  13 NE6       30.01F
SLIDE MTN        N/A     43  25  49 NE3         N/A
FALLON         MOSUNNY   71  21  15 VRB6      30.00F
LOVELOCK       SUNNY     70  19  14 VRB3      30.01F
HAWTHORNE      SUNNY     70  16  12 N8        29.99F
$$

NVZ002-CAZ072-073-220000-
NORTHERN AND CENTRAL SIERRA

CITY           SKY/WX    TMP DP  RH WIND       PRES   REMARKS
S. LAKE TAHOE  SUNNY     62  20  19 NE7       30.09F
TRUCKEE        PTSUNNY   63  18  17 CALM      30.08F
SQUAW VLY 8000   N/A     55  23  28 SW7         N/A
BLUE CANYON    SUNNY     64  24  21 W9        30.10S
MAMMOTH LAKES  PTSUNNY   63  14  14 SE8       30.11F
BRIDGEPORT     CLOUDY    61  14  16 VRB3      30.07S
$$

NVZ030-031-036-220000-
NORTHERN NEVADA

CITY           SKY/WX    TMP DP  RH WIND       PRES   REMARKS
ELKO           CLOUDY    67  35  30 CALM      30.04F
WINNEMUCCA     SUNNY     74  23  15 VRB3      30.01F
WENDOVER       MOSUNNY   62  38  40 E6        30.09F
$$

NVZ035-037-220000-
CENTRAL NEVADA

CITY           SKY/WX    TMP DP  RH WIND       PRES   REMARKS
ELY            CLOUDY    51  39  63 S13       30.14S
EUREKA           N/A     58  36  43 SE13      30.09F
$$

NVZ013-014-220000-
SOUTH CENTRAL NEVADA

CITY           SKY/WX    TMP DP  RH WIND       PRES   REMARKS
TONOPAH        CLOUDY    61  39  44 E17       30.09R
$$

NVZ017-020-022-220000-
SOUTHERN NEVADA

CITY           SKY/WX    TMP DP  RH WIND       PRES   REMARKS
LAS VEGAS      MOSUNNY   77  51  40 N9        29.96F
N. LAS VEGAS   SUNNY     76  50  40 E10       29.95F
NELLIS AFB     SUNNY     75  53  45 NE17      29.94F
HENDERSON      SUNNY     75  50  41 N8        29.99F
MERCURY        SUNNY     73  49  42 SE14      29.99F
$$




Office: LKN ASUS65 KLKN 211943 RTPLKN Regional Temperature And Precipitation Table...Midday National Weather Service Elko NV 1243 PM PDT Sun Oct 21 2018 ***Automated Airport Stations*** Values represent lows over the last 12 hours... Highs over the last 24 hours and precipitation over the last 24 hours...ending at 10 AM PST/11 AM PDT today. .BR LKN 1021 P DH10/TAIRZX/DH10/TAIRZP/PPDRZZ/SFDRZZ/SDIRZZ : :ID Station Elev / Max / Min / Pcpn / :.................................................................... : EKO : Elko ASOS 5074 : 73 / 29 / 0.00 / ELY : Ely ASOS 6262 : 65 / 32 / T / P68 : Eureka ASOS 5936 : 67 / 36 / 0.00 / TPH : Tonopah ASOS 5395 : 69 / 44 / 0.00 / ENV : Wendover AWOS 4236 : 63 / 39 / 0.00 / WMC : Winnemucca ASOS 4314 : 76 / 25 / T / .END ***Manual synoptic reporting stations in north and central Nevada*** Values reflect the previous 24 hours ending at 10 AM PST/11 AM PDT *Snow stations may only report during periods of snowfall* .BR LKN 1021 P DH10/TAIRZX/TAIRZN/PPDRZZ/SFDRZZ/SDIRZZ : Snow Snow :ID Station Elev Max / Min / Pcpn / Fall / Dpth :.................................................................... : ELKN2 : Elko NWS Office 5235 : 72 / 31 / 0.00 / 0.0 / 0 EELN2 : Ely Snow 6487 : M / M / M / M / M EWIN2 : Winnemucca Snow 4355 : M / M / M / M / M .END ***Cooperative stations in north and central Nevada*** Values reflect the previous 24 hours Report time as indicated .BR LKN 1021 P DH04/TAIRZX/TAIRZN/PPDRZZ/SFDRZZ/SDIRZZ : Snow Snow :ID Station Elev Time / Max / Min / Pcpn / Fall / Dpth :.................................................................... : REON2 : Beowawe 49S 5740 7 AM: 69 / 23 / 0.00 / 0.0 / 0 BLEN2 : Blue Eagle Ranch 4768 9 AM: 73 / 44 / 0.09 / 0.0 / 0 EKAN2 : Eureka 6540 7 AM: 65 / 35 / 0.00 / 0.0 / M GBSN2 : Gabbs 1NE 4694 6 AM: 73 / 38 / 0.00 / 0.0 / 0 GIBN2 : Gibbs Ranch 5960 7 AM: M / M / M / M / M LENN2 : Great Basin NP 6824 8 AM: 58 / M / 0.01 / 0.0 / 0 JPTN2 : Jackpot 5295 10 AM: M / M / M / M / M JRGN2 : Jarbidge 6180 8 AM: 69 / 29 / 0.00 / 0.0 / 0 JIGN2 : Jiggs 8SSE 5800 7 AM: M / M / M / M / M KRVN2 : Kings River Vly 4240 8 AM: 75 / 26 / 0.00 / M / M LOIN2 : Lamoille 2N 5750 7 AM: 68 / 22 / 0.00 / 0.0 / 0 LUNN2 : Lund 5560 8 AM: M / M / M / M / M MCGN2 : McGill 6270 8 AM: 66 / 32 / T / 0.0 / 0 MONN2 : Montello 7NE 4828 8 AM: 70 / 21 / 0.00 / 0.0 / 0 MOMN2 : Moorman Ranch 6539 6 AM: 64 / 23 / 0.00 / 0.0 / 0 RBLN2 : Ruby Lake NWR 6010 7 AM: M / M / M / M / M RTHN2 : Ruth 6859 8 AM: 61 / 24 / 0.02 / 0.0 / 0 RNDN2 : Ryndon 5288 8 AM: M / M / M / M / M SFKN2 : South Fork SRA 5270 8 AM: M / M / M / M / M SUNN2 : Sunnyside 5297 7 AM: M / M / M / M / M TNPN2 : Tonopah 6010 7 AM: 68 / 40 / 0.00 / 0.0 / 0 WEHN2 : Wells 1SSW (DCP) 5676 7 AM: M / M / M / M / M PVYN2 : Wendover 16NW 4828 7 AM: 67 / 35 / 0.00 / 0.0 / 0 WGVN2 : Winnemucca 3SSW 4355 7 AM: 75 / 27 / 0.00 / 0.0 / 0 .END M = Missing data T = Trace amounts ASOS = Automated Surface Observing System AWOS = Automated Weather Observation System NWS = National Weather Service These data are preliminary and have not undergone final quality control (QC) by NCEI. Therefore, these data are subject to revision. Final and certified data can be accessed at the National Centers For Environmental Information (NCEI) - www.ncei.noaa.gov $$